Time,TemperatureF,DewpointF,PressureIn,WindDirection,WindDirectionDegrees,WindSpeedMPH,WindSpeedGustMPH,Humidity,HourlyPrecipIn,Conditions,Clouds,dailyrainin,SoftwareType,DateUTC
2013-03-19 00:01:00,41.0,21.0,30.10,SSW,213,0.0,0.0,44,0.00,,,0.00,,2013-03-19 07:01:00,
2013-03-19 00:11:00,41.0,21.0,30.10,SSW,213,0.0,0.0,44,0.00,,,0.00,,2013-03-19 07:11:00,
2013-03-19 00:21:00,40.0,18.0,30.10,SSW,213,0.0,0.0,41,0.00,,,0.00,,2013-03-19 07:21:00,
2013-03-19 00:32:00,40.0,19.0,30.09,SSW,213,0.0,0.0,43,0.00,,,0.00,,2013-03-19 07:32:00,
2013-03-19 00:42:00,40.0,19.0,30.09,SSW,213,0.0,0.0,43,0.00,,,0.00,,2013-03-19 07:42:00,
2013-03-19 00:52:00,40.0,21.0,30.09,SW,224,0.0,0.0,46,0.00,,,0.00,,2013-03-19 07:52:00,
2013-03-19 01:02:00,39.0,18.0,30.10,SW,224,0.0,0.0,43,0.00,,,0.00,,2013-03-19 08:02:00,
2013-03-19 01:12:00,39.0,18.0,30.10,SW,224,0.0,0.0,43,0.00,,,0.00,,2013-03-19 08:12:00,
2013-03-19 01:21:00,39.0,18.0,30.09,SW,224,0.0,0.0,43,0.00,,,0.00,,2013-03-19 08:21:00,
2013-03-19 01:31:00,39.0,18.0,30.09,SW,224,0.0,0.0,43,0.00,,,0.00,,2013-03-19 08:31:00,
2013-03-19 01:41:00,39.0,18.0,30.09,SW,224,0.0,0.0,43,0.00,,,0.00,,2013-03-19 08:41:00,
2013-03-19 01:52:00,38.0,18.0,30.08,SW,224,0.0,0.0,43,0.00,,,0.00,,2013-03-19 08:52:00,
2013-03-19 02:02:00,38.0,18.0,30.07,SW,224,0.0,0.0,43,0.00,,,0.00,,2013-03-19 09:02:00,
2013-03-19 02:12:00,38.0,18.0,30.07,SW,224,0.0,0.0,43,0.00,,,0.00,,2013-03-19 09:12:00,
2013-03-19 02:22:00,37.0,19.0,30.08,SW,224,0.0,0.0,47,0.00,,,0.00,,2013-03-19 09:22:00,
2013-03-19 02:32:00,39.0,20.0,30.08,SW,219,0.0,5.0,47,0.00,,,0.00,,2013-03-19 09:32:00,
2013-03-19 02:42:00,39.0,20.0,30.08,SW,219,0.0,5.0,47,0.00,,,0.00,,2013-03-19 09:42:00,
2013-03-19 02:53:00,40.0,17.0,30.08,SW,234,0.0,0.0,39,0.00,,,0.00,,2013-03-19 09:53:00,
2013-03-19 03:03:00,40.0,17.0,30.08,SW,234,0.0,0.0,39,0.00,,,0.00,,2013-03-19 10:03:00,
2013-03-19 03:12:00,40.0,17.0,30.08,SW,234,0.0,0.0,39,0.00,,,0.00,,2013-03-19 10:12:00,
2013-03-19 03:22:00,39.0,17.0,30.08,SW,220,0.0,0.0,40,0.00,,,0.00,,2013-03-19 10:22:00,
2013-03-19 03:32:00,39.0,17.0,30.08,SW,220,0.0,2.0,41,0.00,,,0.00,,2013-03-19 10:32:00,
2013-03-19 03:42:00,39.0,17.0,30.08,SW,220,0.0,2.0,41,0.00,,,0.00,,2013-03-19 10:42:00,
2013-03-19 03:53:00,39.0,17.0,30.08,SSW,212,3.0,6.0,41,0.00,,,0.00,,2013-03-19 10:53:00,
2013-03-19 04:02:00,40.0,19.0,30.07,SSW,212,1.0,6.0,43,0.00,,,0.00,,2013-03-19 11:02:00,
2013-03-19 04:11:00,40.0,19.0,30.07,SSW,212,1.0,6.0,43,0.00,,,0.00,,2013-03-19 11:11:00,
2013-03-19 04:22:00,40.0,19.0,30.08,SSW,199,2.0,7.0,43,0.00,,,0.00,,2013-03-19 11:22:00,
2013-03-19 04:32:00,40.0,20.0,30.08,SSW,195,3.0,11.0,45,0.00,,,0.00,,2013-03-19 11:32:00,
2013-03-19 04:42:00,40.0,20.0,30.08,SSW,195,3.0,11.0,45,0.00,,,0.00,,2013-03-19 11:42:00,
2013-03-19 04:52:00,40.0,20.0,30.08,SW,223,3.0,10.0,45,0.00,,,0.00,,2013-03-19 11:52:00,
2013-03-19 05:02:00,39.0,21.0,30.08,SW,219,0.0,4.0,48,0.00,,,0.00,,2013-03-19 12:02:00,
2013-03-19 05:12:00,39.0,21.0,30.08,SW,219,0.0,4.0,48,0.00,,,0.00,,2013-03-19 12:12:00,
2013-03-19 05:22:00,39.0,21.0,30.08,South,188,0.0,4.0,49,0.00,,,0.00,,2013-03-19 12:22:00,
2013-03-19 05:32:00,38.0,20.0,30.08,SW,220,2.0,5.0,48,0.00,,,0.00,,2013-03-19 12:32:00,
2013-03-19 05:42:00,38.0,20.0,30.08,SW,220,2.0,5.0,48,0.00,,,0.00,,2013-03-19 12:42:00,
2013-03-19 05:51:00,39.0,21.0,30.08,South,172,3.0,6.0,48,0.00,,,0.00,,2013-03-19 12:51:00,
2013-03-19 06:02:00,40.0,20.0,30.09,SSW,200,2.0,6.0,45,0.00,,,0.00,,2013-03-19 13:02:00,
2013-03-19 06:11:00,40.0,20.0,30.09,SSW,200,2.0,6.0,45,0.00,,,0.00,,2013-03-19 13:11:00,
2013-03-19 06:22:00,40.0,20.0,30.09,SW,217,2.0,5.0,45,0.00,,,0.00,,2013-03-19 13:22:00,
2013-03-19 06:32:00,39.0,20.0,30.09,SW,222,1.0,6.0,47,0.00,,,0.00,,2013-03-19 13:32:00,
2013-03-19 06:42:00,39.0,20.0,30.09,SW,222,1.0,6.0,47,0.00,,,0.00,,2013-03-19 13:42:00,
2013-03-19 06:52:00,39.0,21.0,30.09,SW,215,0.0,0.0,48,0.00,,,0.00,,2013-03-19 13:52:00,
2013-03-19 07:02:00,39.0,21.0,30.10,SW,217,0.0,3.0,48,0.00,,,0.00,,2013-03-19 14:02:00,
2013-03-19 07:11:00,39.0,21.0,30.10,SW,217,0.0,3.0,48,0.00,,,0.00,,2013-03-19 14:11:00,
2013-03-19 07:22:00,39.0,22.0,30.10,SW,229,0.0,5.0,50,0.00,,,0.00,,2013-03-19 14:22:00,
2013-03-19 07:32:00,38.0,21.0,30.10,SW,215,1.0,2.0,50,0.00,,,0.00,,2013-03-19 14:32:00,
2013-03-19 07:41:00,38.0,21.0,30.10,SW,215,1.0,2.0,50,0.00,,,0.00,,2013-03-19 14:41:00,
2013-03-19 07:51:00,39.0,22.0,30.10,SW,223,1.0,2.0,50,0.00,,,0.00,,2013-03-19 14:51:00,
2013-03-19 08:02:00,41.0,23.0,30.10,WSW,247,1.0,7.0,48,0.00,,,0.00,,2013-03-19 15:02:00,
2013-03-19 08:12:00,41.0,23.0,30.10,WSW,247,1.0,7.0,48,0.00,,,0.00,,2013-03-19 15:12:00,
2013-03-19 08:22:00,41.0,23.0,30.11,SW,217,0.0,2.0,48,0.00,,,0.00,,2013-03-19 15:22:00,
2013-03-19 08:33:00,44.0,24.0,30.12,WSW,237,1.0,6.0,45,0.00,,,0.00,,2013-03-19 15:33:00,
2013-03-19 08:43:00,44.0,24.0,30.12,WSW,237,1.0,6.0,45,0.00,,,0.00,,2013-03-19 15:43:00,
2013-03-19 08:52:00,45.0,24.0,30.12,South,182,0.0,5.0,44,0.00,,,0.00,,2013-03-19 15:52:00,
2013-03-19 09:03:00,47.0,25.0,30.12,NW,322,1.0,6.0,41,0.00,,,0.00,,2013-03-19 16:03:00,
2013-03-19 09:12:00,47.0,25.0,30.12,NW,322,1.0,6.0,41,0.00,,,0.00,,2013-03-19 16:12:00,
2013-03-19 09:23:00,47.0,23.0,30.13,WSW,240,2.0,11.0,39,0.00,,,0.00,,2013-03-19 16:23:00,
2013-03-19 09:33:00,48.0,24.0,30.13,SSE,150,2.0,8.0,39,0.00,,,0.00,,2013-03-19 16:33:00,
2013-03-19 09:43:00,48.0,24.0,30.13,SSE,150,2.0,8.0,39,0.00,,,0.00,,2013-03-19 16:43:00,
2013-03-19 09:53:00,50.0,25.0,30.14,SW,219,2.0,6.0,37,0.00,,,0.00,,2013-03-19 16:53:00,
2013-03-19 10:02:00,50.0,23.0,30.14,SSW,200,2.0,9.0,35,0.00,,,0.00,,2013-03-19 17:02:00,
2013-03-19 10:13:00,51.0,24.0,30.14,SW,223,1.0,5.0,35,0.00,,,0.00,,2013-03-19 17:13:00,
2013-03-19 10:23:00,51.0,24.0,30.14,SW,223,1.0,5.0,35,0.00,,,0.00,,2013-03-19 17:23:00,
2013-03-19 10:34:00,53.0,22.0,30.14,WNW,302,0.0,9.0,30,0.00,,,0.00,,2013-03-19 17:34:00,
2013-03-19 10:43:00,53.0,22.0,30.14,WNW,302,0.0,9.0,30,0.00,,,0.00,,2013-03-19 17:43:00,
2013-03-19 10:52:00,53.0,22.0,30.14,SSW,209,2.0,6.0,30,0.00,,,0.00,,2013-03-19 17:52:00,
2013-03-19 11:02:00,54.0,22.0,30.14,WNW,292,2.0,7.0,29,0.00,,,0.00,,2013-03-19 18:02:00,
2013-03-19 11:13:00,54.0,22.0,30.14,WNW,292,2.0,7.0,29,0.00,,,0.00,,2013-03-19 18:13:00,
2013-03-19 11:22:00,54.0,22.0,30.14,SW,224,1.0,7.0,28,0.00,,,0.00,,2013-03-19 18:22:00,
2013-03-19 11:33:00,55.0,22.0,30.14,SW,234,3.0,10.0,27,0.00,,,0.00,,2013-03-19 18:33:00,
2013-03-19 11:42:00,55.0,22.0,30.14,SW,234,3.0,10.0,27,0.00,,,0.00,,2013-03-19 18:42:00,
2013-03-19 11:52:00,55.0,22.0,30.13,West,264,3.0,10.0,27,0.00,,,0.00,,2013-03-19 18:52:00,
2013-03-19 12:02:00,56.0,23.0,30.13,SW,224,4.0,11.0,27,0.00,,,0.00,,2013-03-19 19:02:00,
2013-03-19 12:11:00,56.0,23.0,30.13,SW,224,4.0,11.0,27,0.00,,,0.00,,2013-03-19 19:11:00,
2013-03-19 12:21:00,56.0,23.0,30.14,SW,229,3.0,11.0,27,0.00,,,0.00,,2013-03-19 19:21:00,
2013-03-19 12:32:00,57.0,22.0,30.14,SSW,206,3.0,7.0,26,0.00,,,0.00,,2013-03-19 19:32:00,
2013-03-19 12:42:00,57.0,22.0,30.14,SSW,206,3.0,7.0,26,0.00,,,0.00,,2013-03-19 19:42:00,
2013-03-19 12:52:00,58.0,23.0,30.14,WSW,256,1.0,10.0,26,0.00,,,0.00,,2013-03-19 19:52:00,
2013-03-19 13:02:00,58.0,22.0,30.14,SSW,198,2.0,7.0,25,0.00,,,0.00,,2013-03-19 20:02:00,
2013-03-19 13:11:00,57.0,22.0,30.14,SW,224,3.0,9.0,25,0.00,,,0.00,,2013-03-19 20:11:00,
2013-03-19 13:22:00,57.0,22.0,30.14,SW,224,3.0,9.0,25,0.00,,,0.00,,2013-03-19 20:22:00,
2013-03-19 13:32:00,57.0,21.0,30.13,SW,230,5.0,12.0,24,0.00,,,0.00,,2013-03-19 20:32:00,
2013-03-19 13:42:00,57.0,21.0,30.13,SW,230,5.0,12.0,24,0.00,,,0.00,,2013-03-19 20:42:00,
2013-03-19 13:52:00,57.0,21.0,30.14,SSW,195,5.0,11.0,24,0.00,,,0.00,,2013-03-19 20:52:00,
2013-03-19 14:02:00,58.0,21.0,30.13,SSW,202,3.0,12.0,24,0.00,,,0.00,,2013-03-19 21:02:00,
2013-03-19 14:11:00,58.0,21.0,30.13,West,280,3.0,12.0,24,0.00,,,0.00,,2013-03-19 21:11:00,
2013-03-19 14:22:00,58.0,21.0,30.13,West,280,3.0,12.0,24,0.00,,,0.00,,2013-03-19 21:22:00,
2013-03-19 14:33:00,58.0,21.0,30.13,West,280,3.0,12.0,24,0.00,,,0.00,,2013-03-19 21:33:00,
2013-03-19 14:42:00,58.0,21.0,30.13,West,280,3.0,12.0,24,0.00,,,0.00,,2013-03-19 21:42:00,
2013-03-19 14:52:00,59.0,21.0,30.13,SW,217,2.0,6.0,23,0.00,,,0.00,,2013-03-19 21:52:00,
2013-03-19 15:03:00,60.0,21.0,30.12,SSW,209,2.0,9.0,22,0.00,,,0.00,,2013-03-19 22:03:00,
2013-03-19 15:12:00,60.0,21.0,30.12,SSW,209,2.0,9.0,22,0.00,,,0.00,,2013-03-19 22:12:00,
2013-03-19 15:22:00,59.0,20.0,30.12,SW,219,3.0,10.0,22,0.00,,,0.00,,2013-03-19 22:22:00,
2013-03-19 15:32:00,59.0,20.0,30.12,SW,232,2.0,12.0,22,0.00,,,0.00,,2013-03-19 22:32:00,
2013-03-19 15:42:00,59.0,21.0,30.12,SSW,203,3.0,9.0,23,0.00,,,0.00,,2013-03-19 22:42:00,
2013-03-19 15:53:00,59.0,21.0,30.12,SSW,203,3.0,9.0,23,0.00,,,0.00,,2013-03-19 22:53:00,
2013-03-19 16:02:00,60.0,22.0,30.12,WSW,248,2.0,8.0,23,0.00,,,0.00,,2013-03-19 23:02:00,
2013-03-19 16:11:00,60.0,22.0,30.12,WSW,248,2.0,8.0,23,0.00,,,0.00,,2013-03-19 23:11:00,
2013-03-19 16:21:00,58.0,21.0,30.12,SSW,213,4.0,12.0,24,0.00,,,0.00,,2013-03-19 23:21:00,
2013-03-19 16:32:00,58.0,20.0,30.13,SW,217,4.0,10.0,23,0.00,,,0.00,,2013-03-19 23:32:00,
2013-03-19 16:42:00,58.0,20.0,30.13,SW,217,4.0,10.0,23,0.00,,,0.00,,2013-03-19 23:42:00,
2013-03-19 16:52:00,58.0,21.0,30.13,SW,223,2.0,10.0,24,0.00,,,0.00,,2013-03-19 23:52:00,
2013-03-19 17:02:00,58.0,21.0,30.13,SSW,213,3.0,10.0,24,0.00,,,0.00,,2013-03-20 00:02:00,
2013-03-19 17:12:00,58.0,21.0,30.13,SSW,213,3.0,10.0,24,0.00,,,0.00,,2013-03-20 00:12:00,
2013-03-19 17:22:00,58.0,22.0,30.12,SSW,192,3.0,11.0,25,0.00,,,0.00,,2013-03-20 00:22:00,
2013-03-19 17:32:00,57.0,22.0,30.12,SW,227,2.0,10.0,25,0.00,,,0.00,,2013-03-20 00:32:00,
2013-03-19 17:42:00,57.0,22.0,30.12,SW,227,2.0,10.0,25,0.00,,,0.00,,2013-03-20 00:42:00,
2013-03-19 17:52:00,56.0,21.0,30.13,SSW,195,2.0,7.0,25,0.00,,,0.00,,2013-03-20 00:52:00,
2013-03-19 18:01:00,56.0,22.0,30.13,SSW,195,2.0,7.0,26,0.00,,,0.00,,2013-03-20 01:01:00,
2013-03-19 18:11:00,56.0,22.0,30.13,SSW,195,2.0,7.0,26,0.00,,,0.00,,2013-03-20 01:11:00,
2013-03-19 18:22:00,55.0,23.0,30.13,SSW,213,2.0,6.0,28,0.00,,,0.00,,2013-03-20 01:22:00,
2013-03-19 18:32:00,54.0,21.0,30.13,SW,216,1.0,6.0,27,0.00,,,0.00,,2013-03-20 01:32:00,
2013-03-19 18:42:00,54.0,21.0,30.13,SW,216,1.0,6.0,27,0.00,,,0.00,,2013-03-20 01:42:00,
2013-03-19 18:52:00,53.0,29.0,30.13,SW,234,0.0,4.0,39,0.00,,,0.00,,2013-03-20 01:52:00,
2013-03-19 19:02:00,52.0,30.0,30.13,SW,224,0.0,4.0,43,0.00,,,0.00,,2013-03-20 02:02:00,
2013-03-19 19:11:00,52.0,30.0,30.13,SW,224,0.0,4.0,43,0.00,,,0.00,,2013-03-20 02:11:00,
2013-03-19 19:21:00,51.0,29.0,30.13,WSW,250,0.0,0.0,43,0.00,,,0.00,,2013-03-20 02:21:00,
2013-03-19 19:31:00,50.0,32.0,30.14,WSW,250,0.0,0.0,50,0.00,,,0.00,,2013-03-20 02:31:00,
2013-03-19 19:42:00,50.0,32.0,30.14,WSW,250,0.0,0.0,50,0.00,,,0.00,,2013-03-20 02:42:00,
2013-03-19 19:52:00,48.0,33.0,30.14,WSW,250,0.0,0.0,55,0.00,,,0.00,,2013-03-20 02:52:00,
2013-03-19 20:01:00,47.0,32.0,30.14,WSW,250,0.0,0.0,55,0.00,,,0.00,,2013-03-20 03:01:00,
2013-03-19 20:11:00,45.0,31.0,30.14,WSW,250,0.0,0.0,58,0.00,,,0.00,,2013-03-20 03:11:00,
2013-03-19 20:22:00,45.0,31.0,30.14,WSW,250,0.0,0.0,58,0.00,,,0.00,,2013-03-20 03:22:00,
2013-03-19 20:32:00,45.0,32.0,30.15,WSW,250,0.0,0.0,61,0.00,,,0.00,,2013-03-20 03:32:00,
2013-03-19 20:42:00,45.0,32.0,30.15,WSW,250,0.0,0.0,61,0.00,,,0.00,,2013-03-20 03:42:00,
2013-03-19 20:53:00,44.0,33.0,30.15,WSW,250,0.0,0.0,64,0.00,,,0.00,,2013-03-20 03:53:00,
2013-03-19 21:02:00,43.0,30.0,30.16,WSW,250,0.0,0.0,61,0.00,,,0.00,,2013-03-20 04:02:00,
2013-03-19 21:12:00,43.0,30.0,30.16,WSW,250,0.0,0.0,61,0.00,,,0.00,,2013-03-20 04:12:00,
2013-03-19 21:22:00,41.0,31.0,30.16,WSW,250,0.0,0.0,66,0.00,,,0.00,,2013-03-20 04:22:00,
2013-03-19 21:32:00,41.0,31.0,30.16,WSW,250,0.0,0.0,66,0.00,,,0.00,,2013-03-20 04:32:00,
2013-03-19 21:42:00,41.0,31.0,30.16,WSW,250,0.0,0.0,66,0.00,,,0.00,,2013-03-20 04:42:00,
2013-03-19 21:52:00,40.0,30.0,30.16,WSW,250,0.0,0.0,67,0.00,,,0.00,,2013-03-20 04:52:00,
2013-03-19 22:02:00,39.0,29.0,30.17,WSW,250,0.0,0.0,68,0.00,,,0.00,,2013-03-20 05:02:00,
2013-03-19 22:12:00,39.0,29.0,30.17,WSW,250,0.0,0.0,68,0.00,,,0.00,,2013-03-20 05:12:00,
2013-03-19 22:22:00,39.0,29.0,30.17,WSW,250,0.0,0.0,68,0.00,,,0.00,,2013-03-20 05:22:00,
2013-03-19 22:31:00,38.0,29.0,30.17,WSW,250,0.0,0.0,69,0.00,,,0.00,,2013-03-20 05:31:00,
2013-03-19 22:42:00,38.0,29.0,30.17,WSW,250,0.0,0.0,69,0.00,,,0.00,,2013-03-20 05:42:00,
2013-03-19 22:52:00,37.0,28.0,30.17,WSW,250,0.0,0.0,70,0.00,,,0.00,,2013-03-20 05:52:00,
2013-03-19 23:02:00,37.0,28.0,30.17,WSW,250,0.0,0.0,70,0.00,,,0.00,,2013-03-20 06:02:00,
2013-03-19 23:12:00,37.0,28.0,30.17,WSW,250,0.0,0.0,70,0.00,,,0.00,,2013-03-20 06:12:00,
2013-03-19 23:22:00,37.0,28.0,30.17,WSW,250,0.0,1.0,69,0.00,,,0.00,,2013-03-20 06:22:00,
2013-03-19 23:32:00,38.0,29.0,30.17,WSW,250,0.0,1.0,69,0.00,,,0.00,,2013-03-20 06:32:00,
2013-03-19 23:42:00,38.0,29.0,30.17,WSW,250,0.0,1.0,69,0.00,,,0.00,,2013-03-20 06:42:00,
2013-03-19 23:51:00,37.0,27.0,30.16,WSW,250,0.0,1.0,68,0.00,,,0.00,,2013-03-20 06:51:00,